Malaysia Virtual Airlines Airport Information Service

Paris - Charles-de-Gaulle

ICAO: LFPG Country: France
Latitude: 49.0128 Longitude: 2.55
Latest Arrival : AA44 (KJFK-LFPG) Latest Departure : MH9262 (LFPG-EFHK)


WX CaptureLIVE
Data provided by noaa.gov | Fetched at 05:30:16

METAR : LFPG 290500Z 31002KT 9999 FEW012 BKN020 00/M01 Q1009 NOSIG

TAF : LFPG 282300Z 2900/3006 32005KT 9999 SCT020 TX06/2913Z TNM01/2903Z PROB40 TEMPO 2903/2908 BKN008 BECMG 2922/2924 25010KT BECMG 3004/3006 BKN013


Runway Data for LFPG
Data provided by openaviationdata.com

Runway ID Mag Var Hdg Length Elevation Surface ILS Freq ILS Id ILS Slope
08L -2 87° 13944 ft 392 ft Macadam 108.7 GLE 3
08R -2 87° 8832 ft 392 ft Concrete 108.55 DSE 3
09L -2 87° 8840 ft 392 ft Tarmac 109.35 PNE 3
09R -2 87° 13780 ft 392 ft Macadam 110.1 CGE 3
26L -2 267° 8832 ft 392 ft Concrete 108.35 DSU 3
26R -2 267° 13944 ft 392 ft Macadam 109.1 GAU 3
27L -2 267° 13780 ft 392 ft Macadam 110.7 CGW 3
27R -2 267° 8840 ft 392 ft Tarmac 110.35 PNW 3

Paris - Charles-de-Gaulle, France
Use only for reference purposes



Not for navigational purposes.